Back to catalog

STARLINK-30389

AliveCommunicationsVLEO
NORAD 57783·PAYLOAD·🇺🇸 United States

Launched Sep 4, 2023 from Cape Canaveral Space Force Station

Loading…

Next Passes (next 24 hours)

TLE

FreshSource: CelesTrak SupGP

Epoch: Sep 14, 2026, 21:10 UTC

1 57783C 23134N   26257.88243056  .00025337  00000+0  91749-3 0  2570
2 57783  43.0013 209.0940 0001485 262.3410 161.2383 15.27573357    13

Track STARLINK-30389 in real time with AllMySat

Download on the App Store